Location: Unspecified
(0.0000°N, 0.0000°E)
Time: 08:07:59
(UTC+00:00)

deb r/b Ablestar - Pass Details

Date: 20 December 2025
Orbit: 674 x 763 km, 66.8° (Epoch: 18 January)

Event Time Altitude Azimuth Distance (km) Brightness Sun altitude
Rises 20:41:42 0° 201° (SSW) 3,162 ? -37.0°
Reaches altitude 10° 20:44:03 10° 202° (SSW) 2,250 ? -37.5°
Enters shadow 20:45:19 18° 203° (SSW) 1,768 ? -37.8°
